This is the latest recevied weather packets stored in our database for station/object KC3AWA. If no packets are shown the sender has not sent any weather packets the latest 10 day(s).
| Time | Temp. | Humidity | Pressure | Rain* | Wind** | Luminosity | Snow |
|---|---|---|---|---|---|---|---|
| 1777554748 | 5° C | 97% | 1011.6 hPa | 0 mm | - | 69 W/m² | - |
| 1777554445 | 5° C | 97% | 1011.7 hPa | 0 mm | - | 89 W/m² | - |
| 1777554141 | 5° C | 97% | 1011.6 hPa | 0 mm | - | 113 W/m² | - |
| 1777553839 | 5° C | 97% | 1011.7 hPa | 0 mm | - | 57 W/m² | - |
| 1777553535 | 5° C | 97% | 1011.4 hPa | 0 mm | - | 48 W/m² | - |
| 1777553231 | 5° C | 97% | 1011.6 hPa | 0 mm | - | 55 W/m² | - |
| 1777552928 | 5° C | 97% | 1011.6 hPa | 1.78 mm | - | 42 W/m² | - |
| 1777552627 | 5° C | 97% | 1011.4 hPa | 1.78 mm | - | 47 W/m² | - |
| 1777552324 | 5° C | 97% | 1011.7 hPa | 0 mm | - | 46 W/m² | - |
| 1777552020 | 5° C | 97% | 1011.5 hPa | 0 mm | - | 67 W/m² | - |
| 1777551718 | 5° C | 97% | 1011.3 hPa | 0 mm | - | 55 W/m² | - |
| 1777551415 | 5° C | 97% | 1011.5 hPa | 0 mm | - | 55 W/m² | - |
| 1777551112 | 5° C | 97% | 1011.5 hPa | 0 mm | - | 39 W/m² | - |
| 1777550809 | 5° C | 97% | 1011.7 hPa | 0 mm | - | 35 W/m² | - |
| 1777550505 | 5° C | 97% | 1011.8 hPa | 0 mm | - | 30 W/m² | - |
| 1777550201 | 5° C | 97% | 1011.6 hPa | 0 mm | - | 33 W/m² | - |
| 1777549898 | 5° C | 97% | 1011.5 hPa | 0 mm | - | 38 W/m² | - |
| 1777549594 | 5° C | 97% | 1011.6 hPa | 0 mm | - | 36 W/m² | - |
| 1777549290 | 5° C | 97% | 1011.2 hPa | 0 mm | - | 34 W/m² | - |
| 1777548987 | 5° C | 97% | 1011.5 hPa | 0 mm | - | 24 W/m² | - |
| 1777548684 | 5° C | 97% | 1011.4 hPa | 0 mm | - | 21 W/m² | - |
| 1777548381 | 5° C | 97% | 1011.2 hPa | 0 mm | - | 21 W/m² | - |
| 1777548078 | 5° C | 97% | 1011.2 hPa | 0 mm | - | 19 W/m² | - |
| 1777547774 | 5.56° C | 97% | 1011.2 hPa | 0 mm | - | 11 W/m² | - |
| 1777547469 | 5.56° C | 97% | 1010.9 hPa | 0 mm | - | 11 W/m² | - |
* Rain latest hour (hover to see other rain measurements)
** Current wind speed in m/s (hover to see current wind gust speed)